Tracking 29892 objects as of 21-Nov-2024
HD Live streaming from Space Station
objects crossing your sky now

STARLINK-4426

Track STARLINK-4426 now!
10-day predictions
STARLINK-4426 is classified as:


NORAD ID: 53484
Int'l Code: 2022-099V
Perigee: 568.7 km
Apogee: 571.5 km
Inclination: 97.7 °
Period: 95.9 minutes
Semi major axis: 6941 km
RCS: Unknown
Launch date: August 12, 2022
Source: United States (US)
Launch site: AIR FORCE WESTERN TEST RANGE (AFWTR)
Your satellite tracking list
Your tracking list is empty




NASA's NSSDC Master Catalog

Two Line Element Set (TLE):
1 53484U 22099V   24325.80339539  .00000102  00000-0  12561-4 0  9994
2 53484  97.6549  84.4088 0002025  87.9938 272.1518 15.01261751124889
Source of the keplerian elements: AFSPC